Vorticity
-4 23 -7 -0 9 10 3 -11 24 -5 2 19 5 8 23 8 20 -17 2 5 1 5 5 3 4 6 4 3 4 2 4 5 5 6 4 4 5 5 7 9 8 5 5 5
4 20 13 -4 -6 13 12 2 -8 29 4 30 9 1 -2 -18 -2 35 -12 -1 -2 -4 4 1 -1 1 6 3 1 2 4 5 6 6 7 7 6 6 6 6 5 4 3 3
-9 41 18 6 -0 -3 30 1 -6 6 -2 22 21 13 6 4 0 5 9 -6 1 2 7 -3 -7 -2 1 9 10 10 9 8 7 6 6 5 6 6 5 5 5 5 6 6
27 -1 22 7 6 10 -3 14 23 -8 12 -2 6 8 29 17 6 3 9 7 -2 0 8 6 8 3 6 2 2 4 5 6 5 8 9 9 8 7 7 8 8 7 6 6
19 14 19 5 3 -7 13 -6 6 16 10 -3 -0 1 30 25 26 3 -4 5 4 1 9 20 19 17 18 15 12 10 8 8 5 3 5 6 5 5 7 10 11 10 9 8
18 6 22 2 -2 10 8 12 10 5 10 21 10 -22 36 31 15 20 31 28 9 9 -1 -1 -4 -2 -0 1 4 4 2 2 4 5 6 7 9 10 11 11 11 10 10 10
21 10 4 18 11 4 -9 12 12 8 11 12 19 29 -44 0 5 28 36 19 28 18 12 2 -2 2 2 2 4 1 3 7 8 10 10 10 12 13 12 11 10 10 10 10
-0 24 7 28 9 2 6 -19 -4 7 7 7 7 17 14 18 17 20 15 11 12 26 16 17 13 6 4 7 5 6 8 7 8 11 13 13 11 11 10 9 9 8 8 8
17 8 15 20 11 -10 34 10 -6 -18 5 12 5 9 -8 12 19 28 15 20 14 16 23 10 18 11 10 8 8 8 8 16 16 15 12 11 9 9 8 8 8 8 8 9
16 6 21 3 5 12 -23 28 14 7 4 8 16 23 -17 -33 39 17 24 20 17 11 7 23 21 17 13 10 11 15 19 15 11 9 9 8 8 8 9 10 9 8 8 8
-4 -2 23 19 10 3 11 7 -3 11 -19 3 4 14 26 17 -17 -3 26 27 16 7 15 24 14 9 8 9 12 13 12 10 9 9 9 9 9 8 7 7 7 8 10 11
-4 7 16 13 0 19 13 10 -4 -15 13 12 -13 10 -51 -21 -24 38 15 26 16 19 18 14 9 10 11 13 14 11 10 8 8 7 7 7 7 8 8 8 9 10 12 14
23 14 8 25 32 12 12 12 -7 -2 -12 -8 -15 -13 10 39 26 -1 7 32 16 15 7 7 10 13 11 8 7 6 8 8 8 9 9 10 10 11 11 11 11 13 13 13
14 -2 -8 -4 2 27 37 18 8 8 5 7 -9 -15 -10 1 -10 -13 0 4 26 9 8 7 4 11 11 10 8 8 7 7 8 10 12 12 14 13 13 13 14 13 13 12
6 1 12 4 3 -3 -1 7 26 28 6 -26 -8 10 23 4 -10 -12 8 14 -7 17 10 4 14 10 7 5 7 6 7 9 12 12 13 14 14 14 14 13 13 12 12 13
3 -4 13 10 11 12 9 7 4 4 19 17 18 -13 24 10 -11 -1 23 29 14 19 15 13 9 1 3 7 7 9 13 14 14 13 16 18 15 14 13 12 9 7 7 12
14 5 7 20 13 18 48 20 15 7 3 6 16 7 1 16 23 23 14 16 23 16 18 10 2 4 7 7 8 12 12 9 12 14 15 14 13 11 10 8 7 10 13 16
8 23 8 9 8 20 20 15 17 13 14 29 32 17 4 7 7 9 5 9 6 17 -1 8 5 1 9 7 11 12 9 8 8 12 12 14 10 7 9 7 8 11 12 11
6 6 -7 -7 28 -22 -14 -7 3 6 2 12 10 7 15 29 21 13 11 6 11 7 -1 5 1 8 7 11 10 12 10 9 11 12 11 14 11 7 8 9 10 11 11 10
6 11 4 11 3 -2 17 14 17 17 31 19 17 25 25 10 8 25 13 23 7 13 3 1 3 6 11 9 9 13 12 14 16 15 13 12 10 12 8 10 10 12 16 18
13 11 4 -2 2 16 10 -7 13 15 -9 5 11 12 18 15 26 25 14 13 22 15 7 3 14 11 6 9 10 14 14 16 14 15 13 19 24 13 13 12 15 19 14 12
12 -10 37 22 5 23 26 24 17 13 4 5 9 14 24 20 21 11 20 12 1 0 8 16 3 18 12 14 11 14 12 14 16 18 14 16 20 19 13 17 18 8 8 6
14 -16 2 -4 23 -14 10 -4 15 6 18 22 9 4 21 23 17 16 10 12 10 14 9 2 -2 11 20 14 13 13 12 13 16 17 13 13 15 13 17 13 5 9 8 7
24 -5 6 18 22 -0 4 2 2 4 7 11 3 12 6 17 16 9 4 4 10 27 2 2 -0 -2 6 13 10 16 12 10 12 16 20 18 18 18 10 6 9 8 7 7
-5 29 10 -4 4 -10 3 29 9 13 5 16 14 9 5 5 7 14 22 15 7 5 6 9 10 4 5 8 3 8 16 11 10 10 12 14 13 8 7 9 9 8 8 8
21 4 2 -3 13 25 26 21 9 20 6 3 10 10 11 10 6 7 11 12 10 28 24 3 10 2 1 1 2 2 8 13 11 10 8 7 7 8 9 8 8 8 8 8
Height
3057 3061 3061 3068 3075 3080 3085 3088 3092 3096 3100 3102 3103 3106 3106 3109 3111 3112 3115 3120 3123 3129 3134 3137 3140 3144 3147 3149 3151 3154 3155 3157 3159 3161 3163 3165 3166 3167 3167 3168 3168 3169 3169 3170
3054 3057 3065 3072 3078 3082 3085 3087 3091 3096 3099 3100 3101 3102 3106 3106 3108 3111 3114 3114 3118 3123 3128 3132 3136 3139 3142 3145 3147 3148 3150 3152 3153 3155 3157 3158 3160 3160 3161 3162 3162 3163 3163 3163
3056 3061 3067 3074 3078 3082 3084 3086 3090 3095 3098 3099 3100 3100 3100 3101 3105 3106 3110 3110 3114 3118 3123 3127 3130 3134 3136 3138 3141 3143 3144 3146 3148 3149 3150 3151 3152 3153 3154 3155 3155 3155 3155 3155
3060 3064 3068 3074 3079 3082 3084 3087 3090 3095 3097 3098 3098 3092 3091 3096 3096 3098 3100 3104 3109 3114 3118 3121 3124 3127 3130 3132 3134 3136 3138 3140 3142 3143 3144 3144 3145 3146 3147 3147 3147 3147 3147 3147
3062 3063 3068 3074 3078 3082 3086 3087 3089 3092 3095 3096 3095 3096 3084 3088 3086 3084 3091 3096 3102 3108 3111 3114 3118 3120 3123 3125 3128 3130 3132 3133 3135 3136 3137 3137 3138 3138 3139 3140 3140 3140 3139 3139
3061 3065 3070 3074 3078 3083 3085 3086 3089 3092 3094 3093 3090 3094 3079 3080 3081 3085 3090 3093 3097 3101 3105 3108 3110 3113 3116 3119 3121 3123 3124 3126 3127 3128 3128 3129 3129 3129 3130 3131 3131 3131 3131 3131
3063 3067 3070 3073 3077 3082 3084 3087 3090 3095 3093 3089 3087 3088 3076 3077 3080 3082 3085 3087 3090 3094 3097 3100 3103 3108 3111 3113 3115 3116 3117 3118 3119 3120 3120 3121 3121 3121 3122 3122 3122 3123 3123 3123
3065 3070 3069 3071 3075 3078 3081 3085 3086 3089 3089 3085 3085 3074 3069 3072 3075 3078 3081 3083 3084 3086 3088 3091 3096 3101 3104 3107 3108 3109 3110 3111 3112 3113 3113 3113 3113 3114 3114 3114 3115 3115 3115 3115
3062 3064 3066 3069 3073 3078 3078 3082 3085 3085 3085 3084 3074 3065 3067 3069 3072 3074 3074 3075 3077 3079 3082 3085 3088 3093 3097 3099 3101 3101 3102 3103 3104 3105 3105 3106 3107 3107 3108 3108 3108 3109 3108 3108
3062 3063 3065 3068 3071 3074 3075 3080 3083 3085 3086 3084 3070 3067 3065 3066 3067 3068 3068 3068 3070 3073 3075 3078 3083 3086 3089 3091 3093 3094 3095 3096 3096 3097 3098 3099 3100 3100 3101 3101 3101 3101 3101 3100
3061 3062 3065 3066 3066 3069 3074 3075 3077 3080 3080 3077 3074 3063 3061 3062 3065 3064 3062 3062 3063 3067 3072 3074 3077 3080 3082 3085 3086 3087 3088 3090 3091 3091 3092 3092 3093 3094 3094 3094 3094 3093 3093 3091
3059 3059 3060 3062 3063 3066 3068 3071 3073 3073 3074 3074 3072 3058 3062 3062 3064 3063 3060 3061 3061 3063 3067 3071 3073 3075 3077 3079 3080 3082 3083 3084 3085 3085 3085 3086 3086 3086 3086 3086 3086 3085 3084 3083
3055 3056 3057 3059 3063 3061 3062 3064 3067 3070 3070 3066 3070 3053 3057 3060 3062 3061 3060 3060 3061 3063 3065 3067 3070 3071 3072 3074 3075 3077 3077 3078 3079 3079 3079 3078 3078 3078 3078 3078 3077 3077 3076 3076
3051 3051 3053 3054 3053 3054 3055 3056 3060 3063 3062 3060 3048 3052 3056 3059 3059 3060 3060 3061 3061 3061 3062 3064 3065 3068 3068 3070 3071 3071 3072 3072 3072 3071 3071 3071 3070 3070 3070 3070 3070 3070 3070 3070
3047 3047 3049 3050 3051 3050 3050 3051 3052 3052 3054 3051 3047 3045 3050 3055 3056 3056 3057 3058 3058 3057 3058 3060 3062 3064 3064 3065 3066 3065 3065 3065 3065 3064 3063 3063 3062 3062 3063 3063 3063 3063 3063 3064
3042 3043 3045 3045 3046 3045 3044 3045 3045 3044 3043 3041 3042 3031 3041 3045 3048 3050 3050 3050 3051 3053 3055 3056 3059 3060 3061 3062 3061 3059 3059 3059 3058 3057 3056 3056 3055 3055 3056 3057 3058 3058 3058 3058
3039 3041 3042 3041 3042 3041 3037 3033 3035 3035 3034 3035 3032 3029 3035 3037 3040 3042 3044 3044 3046 3049 3051 3054 3056 3057 3057 3056 3054 3053 3053 3052 3050 3049 3049 3049 3049 3050 3051 3052 3053 3053 3053 3053
3034 3037 3039 3039 3039 3038 3029 3027 3028 3027 3027 3026 3025 3025 3028 3030 3034 3036 3038 3039 3042 3045 3048 3050 3051 3051 3050 3049 3048 3047 3046 3046 3044 3044 3044 3044 3045 3045 3045 3047 3048 3049 3049 3049
3030 3033 3034 3035 3034 3028 3024 3024 3024 3023 3021 3021 3019 3021 3021 3022 3023 3024 3030 3033 3037 3041 3044 3045 3046 3046 3045 3044 3043 3041 3040 3040 3039 3038 3038 3038 3038 3039 3041 3042 3043 3044 3045 3046
3024 3027 3031 3031 3031 3028 3021 3019 3019 3018 3016 3016 3016 3015 3014 3015 3014 3018 3024 3027 3031 3035 3038 3040 3041 3041 3040 3039 3038 3036 3035 3034 3032 3032 3031 3031 3032 3034 3036 3037 3039 3040 3041 3042
3018 3020 3022 3023 3023 3019 3018 3018 3017 3019 3020 3014 3013 3012 3011 3010 3011 3015 3018 3021 3025 3029 3033 3035 3036 3036 3035 3034 3033 3031 3030 3029 3027 3026 3026 3026 3027 3029 3031 3033 3035 3036 3038 3040
3011 3015 3016 3019 3020 3016 3012 3014 3015 3014 3012 3012 3010 3009 3007 3006 3007 3011 3014 3018 3022 3026 3028 3030 3031 3031 3030 3029 3028 3027 3026 3024 3023 3022 3022 3022 3023 3025 3027 3029 3031 3033 3036 3039
3007 3007 3008 3011 3010 3011 3010 3010 3010 3010 3010 3010 3009 3007 3006 3005 3007 3010 3012 3015 3018 3021 3024 3025 3026 3026 3026 3025 3024 3023 3022 3021 3020 3019 3019 3020 3021 3022 3024 3027 3029 3032 3034 3036
3000 3002 3004 3006 3006 3007 3007 3008 3008 3008 3008 3008 3008 3007 3007 3007 3008 3009 3010 3013 3015 3017 3019 3021 3021 3022 3021 3021 3021 3020 3019 3019 3018 3017 3017 3017 3019 3021 3023 3026 3029 3030 3032 3034
2996 2999 3000 3001 3002 3004 3005 3005 3005 3005 3005 3005 3005 3006 3006 3007 3007 3008 3009 3010 3011 3013 3015 3016 3017 3018 3017 3017 3018 3017 3016 3016 3016 3016 3016 3017 3018 3020 3022 3024 3025 3027 3029 3030
2990 2992 2995 2997 3000 3000 3001 3001 3002 3002 3002 3003 3003 3004 3004 3005 3005 3006 3007 3007 3008 3009 3011 3011 3012 3013 3013 3014 3014 3014 3014 3014 3014 3014 3014 3015 3016 3018 3019 3020 3021 3023 3024 3026